Hourly Data Report for September 24, 2003

SHERBROOKE A
QUEBEC

45°26'00.000" N
71°41'00.000" W
241.40 m
7028124
71610
YSC

Download Data

Hourly Data (September 2003)
Hourly Data Report for September 24, 2003
TIME
LST
Temp Definition
°C
Dew Point Definition
°C
Rel Hum Definition
%
Precip. Amount Definition
mm

Wind Dir Definition
10's deg

Wind Spd Definition
km/h
Visibility Definition
km
Stn Press Definition
kPa
Hmdx Definition


Wind Chill Definition


Weather Definition


00:00 11.0 9.6 91   22 9 15.0 98.23      
01:00 10.5 9.2 92   20 7 15.0 98.29      
02:00 9.5 8.3 92   22 7 15.0 98.33      
03:00 9.8 8.5 92   19 9 15.0 98.37      
04:00 10.3 8.4 88   23 11 15.0 98.44      
05:00 9.7 8.1 90   23 7 15.0 98.54      
06:00 8.8 7.6 92   22 6 15.0 98.61      
07:00 11.1 9.3 89   24 7 24.1 98.66     Mainly Clear
08:00 12.8 9.8 82   24 15 24.1 98.71     Mainly Clear
09:00 13.5 10.9 84   23 7 24.1 98.78     Mostly Cloudy
10:00 15.7 10.6 72   25 11 24.1 98.81     Mostly Cloudy
11:00 16.3 10.4 68   26 15 24.1 98.80     Mostly Cloudy
12:00 16.8 9.3 61   23 17 24.1 98.79     Mostly Cloudy
13:00 17.7 9.0 57   21 13 24.1 98.73     Mainly Clear
14:00 17.7 9.1 57   23 15 24.1 98.77     Mostly Cloudy
15:00 17.5 9.1 58   24 11 24.1 98.78     Mostly Cloudy
16:00 17.2 9.6 61   22 7 24.1 98.79     Mostly Cloudy
17:00 16.3 10.3 68   18 6 15.0 98.78      
18:00 12.9 10.0 83   16 7 15.0 98.80      
19:00 11.4 8.8 84   15 9 15.0 98.78      
20:00 8.4 7.5 94   1 4 15.0 98.80      
21:00 8.7 7.5 92   11 7 15.0 98.72      
22:00 7.2 6.2 93   11 9 15.0 98.70      
23:00 6.0 5.4 96   9 6 15.0 98.65      

Notes on Data Quality.

Legend

  • E = Estimated
  • M = Missing
  • NA = Not Available*
  • [empty] = Indicates an unobserved value
Date modified: